軌道要素
Epoch 2021 Aug. 14.0 TT = JDT 2459440.5
T 2021 Aug. 13.92845 TT Rudenko
q 0.7869899 (2000.0) P Q
z -0.0002241 Peri. 74.45095 -0.36664709 -0.87812184
+/-0.0025343 Node 41.60854 +0.57176877 -0.47329440
e 1.0001763 Incl. 27.57244 +0.73392805 -0.06996034
From 61 observations 2021 July 22-Aug. 5, mean residual 0".8.
|